When you browse on this site, cookies collect data to enhance your experience and personalize the content and advertising you see.
Visit our Privacy Policy to learn more. By continuing to use the site, you agree to this use of cookies and data.
  • en France
  • Liste des pays
  • À 7 jours
  • Température de l'eau
  • Carte satellitaire
  • Carte météo
  • Widgets météo
  • user-avatar
    Se connecter

    Météo par heure à Chaplygina

    Ce jour, 12 Décembre, Mercredi

    Heure Température Précipitation Vent Pression Humidité
    00:00 -2°C° 0 mm 2 m/s 742 mmHg 94%
    01:00 -2°C° 0 mm 2 m/s 742 mmHg 94%
    02:00 -2°C° 0 mm 3 m/s 742 mmHg 95%
    03:00 -2°C° 0 mm 3 m/s 742 mmHg 94%
    04:00 -2°C° 0 mm 3 m/s 742 mmHg 94%
    05:00 -2°C° 0 mm 4 m/s 742 mmHg 94%
    06:00 -2°C° 0 mm 4 m/s 742 mmHg 93%
    07:00 -2°C° 0 mm 5 m/s 742 mmHg 93%
    08:00 -2°C° 0 mm 5 m/s 742 mmHg 93%
    09:00 -2°C° 0 mm 5 m/s 741 mmHg 93%
    10:00 -2°C° 0 mm 5 m/s 741 mmHg 93%
    11:00 -3°C° 0 mm 6 m/s 741 mmHg 93%
    12:00 -3°C° 0.3 mm 6 m/s 741 mmHg 93%
    13:00 -3°C° 0.3 mm 6 m/s 741 mmHg 93%
    14:00 -3°C° 0.3 mm 6 m/s 741 mmHg 92%
    15:00 -3°C° 0.3 mm 6 m/s 741 mmHg 92%
    16:00 -3°C° 0.3 mm 6 m/s 741 mmHg 93%
    17:00 -3°C° 0.3 mm 6 m/s 741 mmHg 93%
    18:00 -3°C° 0.3 mm 6 m/s 741 mmHg 93%
    19:00 -3°C° 0.3 mm 6 m/s 741 mmHg 93%
    20:00 -3°C° 0.3 mm 6 m/s 741 mmHg 93%
    21:00 -3°C° 0.3 mm 6 m/s 741 mmHg 93%
    22:00 -3°C° 0.3 mm 6 m/s 741 mmHg 93%
    23:00 -3°C° 0.3 mm 6 m/s 741 mmHg 93%

    Demain, 13 Décembre, Jeudi

    Heure Température Précipitation Vent Pression Humidité
    00:00 -3°C° 0.3 mm 6 m/s 741 mmHg 93%
    01:00 -3°C° 0.3 mm 6 m/s 741 mmHg 93%
    02:00 -3°C° 0.3 mm 6 m/s 741 mmHg 92%
    03:00 -2°C° 0.4 mm 5 m/s 741 mmHg 93%
    04:00 -4°C° 0.4 mm 5 m/s 741 mmHg 93%
    05:00 -4°C° 0.4 mm 5 m/s 741 mmHg 93%
    06:00 -4°C° 0.3 mm 5 m/s 741 mmHg 93%
    07:00 -4°C° 0.3 mm 5 m/s 741 mmHg 93%
    08:00 -4°C° 0.3 mm 5 m/s 742 mmHg 93%
    09:00 -4°C° 0.2 mm 5 m/s 742 mmHg 93%
    10:00 -4°C° 0.2 mm 5 m/s 742 mmHg 93%
    11:00 -4°C° 0.2 mm 5 m/s 742 mmHg 93%
    12:00 -4°C° 0.1 mm 5 m/s 743 mmHg 93%
    13:00 -3°C° 0.1 mm 4 m/s 743 mmHg 93%
    14:00 -3°C° 0.1 mm 4 m/s 743 mmHg 94%
    15:00 -3°C° 0.1 mm 4 m/s 744 mmHg 94%
    16:00 -3°C° 0.1 mm 4 m/s 744 mmHg 94%
    17:00 -3°C° 0.1 mm 4 m/s 745 mmHg 95%
    18:00 -4°C° 0.1 mm 4 m/s 745 mmHg 95%
    19:00 -4°C° 0.1 mm 3 m/s 746 mmHg 95%
    20:00 -4°C° 0.1 mm 3 m/s 746 mmHg 95%
    21:00 -4°C° 0.1 mm 3 m/s 746 mmHg 95%
    22:00 -4°C° 0.1 mm 3 m/s 747 mmHg 96%
    23:00 -4°C° 0.1 mm 3 m/s 747 mmHg 96%

    Après-demain, 14 Décembre, Vendredi

    Heure Température Précipitation Vent Pression Humidité
    00:00 -4°C° 0.1 mm 3 m/s 747 mmHg 96%
    01:00 -3°C° 0.1 mm 2 m/s 748 mmHg 96%
    02:00 -3°C° 0.1 mm 2 m/s 748 mmHg 96%
    03:00 -3°C° 0 mm 2 m/s 748 mmHg 96%
    04:00 -4°C° 0 mm 2 m/s 748 mmHg 96%
    05:00 -4°C° 0 mm 2 m/s 748 mmHg 96%
    06:00 -4°C° 0 mm 2 m/s 749 mmHg 95%
    07:00 -4°C° 0 mm 2 m/s 749 mmHg 95%
    08:00 -4°C° 0 mm 2 m/s 749 mmHg 95%
    09:00 -4°C° 0 mm 2 m/s 750 mmHg 94%
    10:00 -4°C° 0 mm 2 m/s 750 mmHg 94%
    11:00 -3°C° 0 mm 2 m/s 750 mmHg 94%
    12:00 -3°C° 0 mm 2 m/s 750 mmHg 94%
    13:00 -3°C° 0 mm 2 m/s 751 mmHg 94%
    14:00 -1°C° 0 mm 1 m/s 751 mmHg 94%
    15:00 -4°C° 0 mm 2 m/s 751 mmHg 94%
    16:00 -4°C° 0 mm 2 m/s 751 mmHg 95%
    17:00 -4°C° 0 mm 2 m/s 751 mmHg 95%
    18:00 -4°C° 0 mm 2 m/s 752 mmHg 96%
    19:00 -4°C° 0 mm 2 m/s 752 mmHg 96%
    20:00 -4°C° 0 mm 2 m/s 752 mmHg 96%
    21:00 -4°C° 0 mm 2 m/s 752 mmHg 96%
    22:00 -4°C° 0 mm 2 m/s 752 mmHg 96%
    23:00 -4°C° 0 mm 2 m/s 753 mmHg 96%

    15 Décembre, Samedi

    Heure Température Précipitation Vent Pression Humidité
    00:00 -4°C° 0.1 mm 2 m/s 753 mmHg 96%
    01:00 -4°C° 0.1 mm 2 m/s 753 mmHg 96%
    02:00 -4°C° 0.1 mm 2 m/s 753 mmHg 96%
    03:00 -4°C° 0.1 mm 2 m/s 753 mmHg 96%
    04:00 -5°C° 0.1 mm 2 m/s 753 mmHg 96%
    05:00 -5°C° 0.1 mm 2 m/s 753 mmHg 96%
    06:00 -5°C° 0.1 mm 2 m/s 754 mmHg 96%
    07:00 -5°C° 0.1 mm 2 m/s 754 mmHg 96%
    08:00 -6°C° 0.1 mm 3 m/s 754 mmHg 95%
    09:00 -6°C° 0.1 mm 3 m/s 754 mmHg 95%
    10:00 -5°C° 0.1 mm 3 m/s 755 mmHg 94%
    11:00 -5°C° 0.1 mm 3 m/s 755 mmHg 93%
    12:00 -5°C° 0.1 mm 3 m/s 755 mmHg 93%
    13:00 -5°C° 0.1 mm 3 m/s 755 mmHg 92%
    14:00 -5°C° 0.1 mm 3 m/s 756 mmHg 92%
    15:00 -6°C° 0 mm 3 m/s 756 mmHg 93%
    16:00 -6°C° 0 mm 3 m/s 756 mmHg 94%
    17:00 -6°C° 0 mm 3 m/s 756 mmHg 95%
    18:00 -6°C° 0 mm 3 m/s 757 mmHg 95%
    19:00 -7°C° 0 mm 3 m/s 757 mmHg 95%
    20:00 -7°C° 0 mm 3 m/s 757 mmHg 94%
    21:00 -8°C° 0 mm 3 m/s 758 mmHg 95%
    22:00 -8°C° 0 mm 2 m/s 758 mmHg 95%
    23:00 -9°C° 0 mm 2 m/s 758 mmHg 95%

    16 Décembre, Dimanche

    Heure Température Précipitation Vent Pression Humidité
    00:00 -9°C° 0 mm 2 m/s 758 mmHg 95%
    01:00 -10°C° 0 mm 2 m/s 758 mmHg 96%
    02:00 -12°C° 0 mm 2 m/s 759 mmHg 96%
    03:00 -12°C° 0 mm 2 m/s 759 mmHg 96%
    04:00 -12°C° 0 mm 2 m/s 759 mmHg 96%
    05:00 -13°C° 0 mm 2 m/s 759 mmHg 96%
    06:00 -13°C° 0 mm 2 m/s 759 mmHg 96%
    07:00 -13°C° 0 mm 2 m/s 759 mmHg 97%
    08:00 -13°C° 0 mm 2 m/s 759 mmHg 97%
    09:00 -13°C° 0 mm 2 m/s 759 mmHg 96%
    10:00 -13°C° 0 mm 2 m/s 760 mmHg 95%
    11:00 -12°C° 0 mm 2 m/s 760 mmHg 95%
    12:00 -13°C° 0 mm 2 m/s 760 mmHg 94%
    13:00 -11°C° 0 mm 1 m/s 759 mmHg 94%
    14:00 -11°C° 0 mm 1 m/s 759 mmHg 93%
    15:00 -12°C° 0 mm 1 m/s 759 mmHg 93%
    16:00 -15°C° 0 mm 2 m/s 759 mmHg 92%
    17:00 -16°C° 0 mm 2 m/s 759 mmHg 92%
    18:00 -17°C° 0 mm 2 m/s 759 mmHg 91%
    19:00 -17°C° 0 mm 2 m/s 759 mmHg 90%
    20:00 -17°C° 0 mm 2 m/s 759 mmHg 89%
    21:00 -16°C° 0 mm 1 m/s 759 mmHg 88%
    22:00 -16°C° 0 mm 1 m/s 759 mmHg 88%
    23:00 -16°C° 0 mm 1 m/s 759 mmHg 87%

    17 Décembre, Lundi

    Heure Température Précipitation Vent Pression Humidité
    00:00 -17°C° 0 mm 1 m/s 758 mmHg 87%
    01:00 -17°C° 0 mm 1 m/s 758 mmHg 87%
    02:00 -17°C° 0 mm 1 m/s 758 mmHg 86%
    03:00 -17°C° 0 mm 1 m/s 758 mmHg 86%
    04:00 -17°C° 0 mm 1 m/s 758 mmHg 87%
    05:00 -17°C° 0 mm 1 m/s 757 mmHg 87%
    06:00 -17°C° 0 mm 1 m/s 757 mmHg 87%
    07:00 -17°C° 0 mm 1 m/s 757 mmHg 88%
    08:00 -17°C° 0 mm 1 m/s 757 mmHg 88%
    09:00 -16°C° 0 mm 1 m/s 757 mmHg 88%
    10:00 -15°C° 0 mm 1 m/s 757 mmHg 89%
    11:00 -14°C° 0 mm 1 m/s 757 mmHg 89%
    12:00 -14°C° 0 mm 1 m/s 756 mmHg 89%
    13:00 -14°C° 0 mm 1 m/s 756 mmHg 90%
    14:00 -14°C° 0 mm 1 m/s 756 mmHg 90%
    15:00 -15°C° 0 mm 1 m/s 755 mmHg 90%
    16:00 -16°C° 0 mm 1 m/s 755 mmHg 91%
    17:00 -18°C° 0 mm 2 m/s 755 mmHg 92%
    18:00 -18°C° 0 mm 2 m/s 755 mmHg 92%
    19:00 -19°C° 0 mm 2 m/s 755 mmHg 92%
    20:00 -19°C° 0 mm 2 m/s 755 mmHg 93%
    21:00 -19°C° 0 mm 2 m/s 754 mmHg 93%
    22:00 -19°C° 0 mm 2 m/s 754 mmHg 93%
    23:00 -19°C° 0 mm 2 m/s 754 mmHg 93%
    Voir plus